Flag for U.S.A. Weather past 2 weeks in Seattle, Washington, U.S.A.

Now
68 °F

Clear.


Feels Like: 68 °F
Forecast: 61 / 81 °F
Wind: No wind

Location: Seattle Boeing Field

Current Time: Jul 31, 2014 at 2:41:38 AM

Latest Report: Jul 31, 2014 at 1:53 AM


Visibility: 10 mi

Pressure: 30.10 "Hg

Humidity: 44%

Dew point: 45 °F

Location of SeattleLocation

Historic Weather in Seattle — Graph

°F

Seattle temperature yesterday

Maximum temperature yesterday: 84 °F (at 3:53 PM)
Minimum temperature yesterday: 63 °F (at 5:53 AM)
Average temperature yesterday: 74 °F

Past Weeks' High & Low Weather Summary

 TemperatureHumidityPressure
High89 °F (Jul 16, 4:53 PM)87% (Jul 23, 7:53 AM)30.21 "Hg (Jul 23, 7:53 AM)
Low57 °F (Jul 18, 5:53 AM)25% (Jul 28, 4:53 PM)29.89 "Hg (Jul 16, 7:53 PM)
Average69 °F60%30.06 "Hg
* Reported Jul 16 12:53 AM — Jul 31 12:53 AM, Seattle, Weather by CustomWeather, © 2014

Note: Actual official high and low records may vary slightly from our data, if they occured in-between our weather recording intervals... More about our weather records

Advertising

Seattle weather history for previous 24 hours

 ConditionsComfort  
Time TempWeatherWind HumidityBarometerVisibility
12:53 AM
Jul 31
69 °FClear.3 mph45%30.10 "Hg10 mi
11:53 PM
Jul 30
70 °FClear.No wind41%30.10 "Hg10 mi
10:53 PM71 °FClear.5 mph39%30.09 "Hg10 mi
9:53 PM75 °FClear.5 mph42%30.08 "Hg10 mi
8:53 PM78 °FSunny.3 mph40%30.08 "Hg10 mi
7:53 PM82 °FPassing clouds.6 mph31%30.07 "Hg10 mi
6:53 PM83 °FPassing clouds.7 mph30%30.07 "Hg10 mi
5:53 PM83 °FSunny.8 mph27%30.07 "Hg10 mi
4:53 PM84 °FSunny.8 mph26%30.09 "Hg10 mi
3:53 PM84 °FSunny.10 mph32%30.09 "Hg10 mi
2:53 PM82 °FSunny.9 mph33%30.11 "Hg10 mi
1:53 PM80 °FSunny.9 mph36%30.13 "Hg10 mi
12:53 PM79 °FSunny.8 mph36%30.13 "Hg10 mi
11:53 AM76 °FPassing clouds.7 mph48%30.14 "Hg10 mi
10:53 AM74 °FSunny.6 mph53%30.14 "Hg10 mi
9:53 AM73 °FSunny.3 mph57%30.14 "Hg10 mi
8:53 AM69 °FSunny.3 mph66%30.15 "Hg10 mi
7:53 AM66 °FSunny.No wind70%30.14 "Hg10 mi
6:53 AM63 °FSunny.No wind78%30.14 "Hg10 mi
5:53 AM63 °FClear.No wind75%30.13 "Hg10 mi
4:53 AM64 °FClear.No wind73%30.12 "Hg10 mi
3:53 AM64 °FClear.No wind73%30.11 "Hg10 mi
2:53 AM66 °FClear.3 mph68%30.10 "Hg10 mi
Weather by CustomWeather, © 2014

See weather overviewHow to use our weather pages